This is the latest recevied weather packets stored in our database for station/object N4MGC. If no packets are shown the sender has not sent any weather packets the latest 10 day(s).
| Time | Temp. | Humidity | Pressure | Rain* | Wind** | Luminosity | Snow |
|---|---|---|---|---|---|---|---|
| 1777676534 | 16.11° C | 81% | 1013.5 hPa | 0 mm | - | 32 W/m² | - |
| 1777676231 | 16.11° C | 79% | 1013.6 hPa | 0 mm | - | 39 W/m² | - |
| 1777675928 | 16.67° C | 79% | 1013.3 hPa | 0 mm | - | 44 W/m² | - |
| 1777675624 | 16.67° C | 78% | 1013.2 hPa | 0 mm | - | 45 W/m² | - |
| 1777675322 | 16.67° C | 76% | 1013.5 hPa | 0 mm | - | 41 W/m² | - |
| 1777675018 | 16.67° C | 77% | 1013.2 hPa | 0 mm | - | 42 W/m² | - |
| 1777674715 | 16.67° C | 73% | 1013.3 hPa | 0 mm | - | 45 W/m² | - |
| 1777674411 | 16.67° C | 73% | 1013.4 hPa | 0 mm | - | 47 W/m² | - |
| 1777674109 | 17.22° C | 70% | 1013.4 hPa | 0 mm | - | 53 W/m² | - |
| 1777673804 | 17.22° C | 71% | 1013.5 hPa | 0 mm | - | 57 W/m² | - |
| 1777673502 | 17.78° C | 69% | 1013.6 hPa | 0 mm | - | 56 W/m² | - |
| 1777673200 | 17.78° C | 69% | 1013.6 hPa | 0 mm | - | 57 W/m² | - |
| 1777672897 | 17.78° C | 68% | 1013.4 hPa | 0 mm | - | 72 W/m² | - |
| 1777672593 | 17.78° C | 63% | 1013.3 hPa | 0 mm | - | 72 W/m² | - |
| 1777672288 | 17.78° C | 64% | 1013.5 hPa | 0 mm | - | 85 W/m² | - |
| 1777671984 | 17.78° C | 63% | 1013.2 hPa | 0 mm | - | 98 W/m² | - |
| 1777671679 | 17.78° C | 65% | 1012.9 hPa | 0 mm | - | 102 W/m² | - |
| 1777671377 | 17.78° C | 64% | 1012.9 hPa | 0 mm | - | 116 W/m² | - |
| 1777671073 | 17.78° C | 65% | 1012.9 hPa | 0 mm | - | 115 W/m² | - |
| 1777670769 | 18.33° C | 62% | 1013.1 hPa | 0 mm | - | 121 W/m² | - |
| 1777670466 | 18.33° C | 63% | 1013.2 hPa | 0 mm | - | 136 W/m² | - |
| 1777670162 | 18.33° C | 65% | 1012.8 hPa | 0 mm | - | 134 W/m² | - |
| 1777669861 | 18.33° C | 62% | 1012.7 hPa | 0 mm | - | 133 W/m² | - |
| 1777669556 | 18.33° C | 62% | 1012.9 hPa | 0 mm | - | 140 W/m² | - |
| 1777669254 | 18.33° C | 63% | 1012.9 hPa | 0 mm | - | 157 W/m² | - |
* Rain latest hour (hover to see other rain measurements)
** Current wind speed in m/s (hover to see current wind gust speed)